Tracking 20241 objects as of 26-Jan-2020
HD Live streaming from Space Station
objects crossing your sky now

FREGAT R/B

Track FREGAT R/B now!


NORAD ID: 41033
Int'l Code: 2015-066B
Perigee: 1,561.0 km
Apogee: 38,643.6 km
Inclination: 63.4 °
Period: 714.5 minutes
Semi major axis: 26473 km
RCS: Unknown
Launch date: November 17, 2015
Source: Commonwealth of Independent States (former USSR) (CIS)
Launch site: PLESETSK MISSILE AND SPACE COMPLEX (PKMTR)

Note: This is a ROCKET BODY
aabbcc
Your satellite tracking list
Your tracking list is empty




NASA's NSSDC Master Catalog

Two Line Element Set (TLE):
1 41033U 15066B   20024.85341055  .00001465  00000-0  00000+0 0  9993
2 41033  63.4033 265.0338 7003775 265.2779  18.8285  2.01553534 30829
Source of the keplerian elements: AFSPC